SCP
1 1 1 1 1 1 1 1 1 0 0 0 0 0 0 0 0 0 0 0 0 0 0 0 0 0 0 0 0 0 0 0 0 0 0 0 0 0 0 0 0 0 0
1 1 1 1 1 1 1 1 1 0 0 0 0 0 0 0 0 0 0 0 0 0 0 0 0 0 0 0 0 0 0 0 0 0 0 0 0 0 0 0 0 0 0
1 1 1 2 2 1 1 1 1 0 0 0 0 0 0 0 0 0 0 0 0 0 0 0 0 0 0 0 0 0 0 0 0 0 0 0 0 0 0 0 0 0 0
2 1 2 2 2 1 1 1 1 0 0 0 0 0 0 0 0 0 0 0 0 0 0 0 0 0 0 0 0 0 0 0 0 0 0 0 0 0 0 0 0 0 0
2 2 2 2 2 2 1 1 1 0 0 0 0 0 0 0 0 0 0 0 0 0 0 0 0 0 0 0 0 0 0 0 0 0 0 0 0 0 0 0 0 0 0
2 2 2 2 2 2 2 1 1 0 0 0 0 0 0 0 0 0 0 0 0 0 0 0 0 0 0 0 0 0 0 0 0 0 0 0 0 0 0 0 0 0 0
3 2 3 3 2 2 2 1 1 1 0 0 0 0 0 0 0 0 0 0 0 0 0 0 0 0 0 0 0 0 0 0 0 0 0 0 0 0 0 0 0 0 0
3 3 3 3 3 2 2 1 1 1 1 0 0 0 0 0 0 0 0 0 0 0 0 0 0 0 0 0 0 0 0 0 0 0 0 0 0 0 0 0 0 0 0
3 3 3 3 3 2 2 2 1 1 1 0 0 0 0 0 0 0 0 0 0 0 0 0 0 0 0 0 0 0 0 0 0 0 0 0 0 0 0 0 0 0 0
3 3 3 3 3 2 2 2 2 1 1 0 0 0 0 0 0 0 0 0 0 0 0 0 0 0 0 0 0 0 0 0 0 0 0 0 0 0 0 0 0 0 0
2 2 3 3 3 2 2 2 2 2 1 1 0 0 0 0 0 0 0 0 0 0 0 0 0 0 0 0 0 0 0 0 0 0 0 0 0 0 0 0 0 0 0
2 2 2 2 3 3 3 3 2 2 1 1 0 0 0 0 0 0 0 0 0 0 0 0 0 0 0 0 0 0 0 0 0 0 0 0 0 0 0 0 0 0 0
1 1 2 2 3 3 3 2 2 2 1 1 1 0 0 0 0 0 0 0 0 0 0 0 0 0 0 0 0 0 0 0 0 0 0 0 0 0 0 0 0 0 0
2 2 2 2 2 3 2 2 2 1 1 1 0 0 0 0 0 0 0 0 0 0 0 0 0 0 0 0 0 0 0 0 0 0 0 0 0 0 0 0 0 0 0
2 2 2 2 2 2 2 1 1 1 1 1 0 0 0 0 0 0 0 0 0 0 0 0 0 0 0 0 0 0 0 0 0 0 0 0 0 0 0 0 0 0 0
3 3 2 2 2 2 2 1 1 1 1 1 1 0 0 0 0 0 0 0 0 0 0 0 0 0 0 0 0 0 0 0 0 0 0 0 0 0 0 0 0 0 0
4 3 2 2 2 2 1 1 1 1 1 1 1 1 0 0 0 0 0 0 0 0 0 0 0 0 0 0 0 0 0 0 0 0 0 0 0 0 0 0 0 0 0
4 3 3 2 2 2 2 1 1 1 1 1 1 1 1 1 1 1 1 0 0 0 0 0 0 0 0 0 0 0 0 0 0 0 0 0 0 0 0 0 1 0 0
4 4 4 3 3 3 2 2 1 1 1 1 1 1 1 1 1 1 1 1 0 0 0 0 0 0 0 0 0 0 0 0 0 0 0 0 0 0 0 0 1 0 0
5 5 5 4 4 4 3 2 2 2 2 2 2 2 1 1 1 1 1 1 0 0 0 0 0 0 0 0 0 0 0 0 0 0 0 0 0 0 0 0 0 0 0
5 5 5 5 5 5 4 3 2 2 2 2 2 2 2 1 1 1 1 1 0 0 0 0 0 0 0 0 0 0 0 0 0 0 0 0 0 0 0 0 0 0 0
5 5 5 6 5 5 4 3 2 2 1 1 1 2 2 1 1 1 1 1 1 0 0 0 0 0 0 0 0 0 0 0 0 0 0 0 0 0 0 0 0 0 0
5 5 6 6 5 4 3 2 2 2 1 1 1 1 1 1 1 1 1 1 1 0 0 0 0 0 0 0 0 0 0 0 0 0 0 0 0 0 0 0 0 0 0
5 5 5 5 4 3 2 2 2 1 1 1 1 1 1 1 1 1 1 1 1 1 0 0 0 0 0 0 0 0 0 0 0 0 0 0 0 0 0 0 0 0 0
4 4 4 4 3 2 2 1 1 1 1 1 1 1 0 1 1 1 1 1 1 1 0 0 0 0 0 0 0 0 0 0 0 0 0 0 0 0 0 0 0 0 0
4 4 3 3 2 2 2 1 1 1 1 1 1 0 0 0 1 1 1 1 1 0 0 0 0 0 0 0 0 0 0 0 0 0 0 0 0 0 0 0 0 0 0
Wind_Speed
9 11 17 18 18 18 18 18 17 17 17 17 17 17 16 16 16 15 15 14 13 12 12 12 12 12 13 14 14 15 16 16 16 17 17 17 17 18 18 18 16 12 18
13 13 18 19 19 18 18 18 17 17 16 16 16 15 15 15 14 14 14 13 12 12 12 12 12 12 13 13 14 15 15 16 16 16 17 16 17 17 17 17 15 11 17
16 13 16 19 19 19 19 18 17 17 16 16 15 15 14 14 14 14 13 12 12 12 12 12 12 12 12 13 13 14 14 15 15 15 14 7 10 16 16 16 16 16 16
16 12 14 20 19 19 19 18 17 17 16 15 15 14 14 14 13 13 13 12 12 12 11 11 12 11 12 12 12 13 13 14 15 14 6 5 7 15 16 16 16 15 15
14 11 16 21 20 20 19 18 17 17 16 15 14 14 14 13 13 13 13 12 12 11 11 11 11 11 11 11 11 11 11 12 13 10 5 5 6 14 15 15 15 15 15
13 11 16 21 21 20 19 18 17 17 16 15 14 14 14 13 13 13 13 12 12 11 11 11 11 10 10 11 10 10 10 11 10 6 5 5 5 13 15 14 15 14 14
13 10 14 21 21 20 19 18 18 17 16 15 14 14 13 13 13 13 13 12 12 11 10 10 10 9 9 9 9 9 9 11 7 6 5 5 6 12 14 14 14 14 13
15 11 12 20 20 20 19 18 17 17 16 15 14 14 13 13 13 12 12 12 11 10 10 9 8 8 8 8 8 7 7 10 9 7 5 5 9 12 13 13 13 13 13
14 12 9 11 14 18 19 18 17 17 16 15 14 14 13 13 12 12 11 11 11 10 9 8 7 7 7 6 6 7 8 11 6 5 7 4 9 12 13 13 13 12 12
12 11 9 9 9 9 11 17 17 16 16 15 14 14 13 13 12 12 10 10 10 9 8 8 7 6 5 5 6 7 9 10 5 4 4 5 11 12 13 13 12 12 12
12 9 9 9 8 8 8 13 14 15 15 13 11 14 11 5 5 6 8 10 10 9 8 7 6 5 4 3 5 8 8 3 4 3 3 9 12 13 13 12 12 12 11
14 11 9 10 9 8 9 7 5 6 6 5 4 5 4 3 3 5 8 10 9 9 7 6 5 4 3 2 3 6 3 5 4 3 4 12 13 13 13 12 12 12 11
16 13 11 10 10 8 6 6 3 3 4 4 5 5 4 3 3 3 2 4 4 5 3 3 2 1 1 2 2 3 3 3 3 2 5 13 12 13 13 13 12 11 11
14 13 11 10 9 8 7 6 5 4 4 3 4 5 4 3 3 3 2 2 2 1 2 1 1 1 1 2 3 4 4 3 3 2 5 13 12 12 13 13 12 11 11
13 12 11 10 8 8 7 6 7 5 5 5 4 5 5 4 4 4 3 3 3 2 2 2 2 2 2 2 3 5 5 5 4 4 4 12 12 11 12 13 12 12 11
14 14 11 10 8 8 7 6 6 5 5 4 4 5 5 4 4 4 3 3 3 3 3 3 3 2 2 2 3 4 5 5 4 4 3 7 12 12 12 12 12 12 11
13 13 12 11 10 10 9 7 6 5 5 5 4 5 5 5 5 4 3 3 3 3 3 2 2 2 2 2 3 3 4 5 5 5 4 3 5 10 11 12 11 12 12
12 12 12 11 9 8 7 6 5 5 6 5 4 4 5 5 5 4 3 3 3 3 3 2 2 2 1 2 2 2 3 4 5 5 4 4 3 4 7 12 11 11 12
13 13 11 9 9 8 7 5 4 4 5 4 4 4 4 5 5 4 3 3 3 2 2 3 2 2 2 2 2 2 2 3 4 5 5 5 4 4 4 7 11 11 12
11 11 11 10 9 8 5 4 3 3 3 4 4 4 5 4 5 4 3 3 3 3 2 2 2 2 2 2 2 2 1 1 2 3 5 5 4 5 5 5 5 7 12
9 9 10 9 8 7 5 5 4 4 3 3 3 5 6 5 5 4 3 3 3 3 3 3 2 3 2 2 3 2 2 1 1 3 3 4 5 5 5 5 4 4 4
10 9 9 9 9 8 6 5 4 4 3 3 3 4 5 5 5 4 4 3 3 3 3 3 3 2 1 2 3 3 1 3 2 2 2 3 4 4 5 7 6 6 5
10 10 10 9 9 8 7 5 4 4 3 2 3 3 4 5 5 5 5 4 3 3 3 3 3 4 2 1 2 4 3 3 2 2 2 3 3 3 4 4 6 6 7
10 9 8 9 8 8 8 8 8 6 5 5 4 3 4 4 5 5 5 5 4 3 3 3 3 3 3 2 1 0 2 4 3 1 2 2 3 4 5 5 6 6 6
9 9 8 8 8 7 8 9 8 6 4 4 4 5 4 3 4 5 5 5 4 3 3 3 4 3 3 3 1 1 1 1 2 2 1 2 2 3 4 5 4 5 6
7 7 8 8 8 7 8 8 9 9 8 7 6 5 4 2 3 4 5 5 4 4 4 4 4 4 3 3 2 2 2 2 1 2 2 2 2 3 3 4 4 5 5
Wind_Direction
150 155 150 143 138 133 128 124 120 116 113 111 110 109 109 109 110 110 110 110 109 107 106 104 105 108 110 112 113 114 116 117 117 118 118 118 117 116 114 112 109 109 111
147 152 149 144 140 136 132 129 125 122 119 117 116 114 114 113 113 113 112 112 111 109 108 107 109 111 114 117 118 118 118 119 119 119 117 118 118 116 115 115 114 116 115
142 147 147 145 141 138 135 133 130 128 126 124 122 120 119 118 117 116 116 115 113 111 111 111 112 114 118 121 122 122 122 121 120 116 110 102 114 118 118 118 116 115 115
141 144 146 145 142 140 138 137 135 133 131 130 127 126 125 123 121 121 119 117 115 114 114 114 115 117 120 123 124 125 125 122 119 116 103 102 114 120 120 120 117 117 116
138 142 148 146 144 143 141 140 139 137 136 134 132 130 129 127 125 124 121 120 118 116 116 116 117 118 121 123 124 125 125 125 124 114 104 99 107 124 124 123 120 119 118
138 142 148 146 145 144 143 142 141 140 139 138 136 133 130 129 127 125 123 121 119 117 117 117 118 120 122 125 125 126 126 124 119 113 112 112 117 128 127 126 125 123 122
138 142 147 147 146 146 145 145 144 143 142 141 140 136 133 131 128 126 125 124 123 121 120 119 120 122 123 125 126 126 128 129 124 122 120 118 129 132 130 129 128 126 125
140 142 145 147 147 147 148 148 148 147 146 145 143 140 138 136 133 131 131 130 128 126 125 124 124 124 125 125 124 124 129 138 134 134 126 126 136 135 134 133 132 131 129
139 141 144 148 150 151 152 152 151 150 149 149 147 144 143 141 139 139 138 137 135 134 132 131 129 128 126 125 124 123 127 135 130 138 141 137 143 143 140 140 139 138 135
142 146 149 149 148 150 153 155 154 153 154 153 152 151 150 149 147 147 145 145 144 143 141 138 135 131 128 126 119 112 119 125 129 133 133 151 151 149 146 146 145 143 141
151 154 154 151 148 147 152 160 157 157 159 158 158 159 155 144 145 150 158 158 155 153 151 148 145 139 129 115 109 109 112 124 131 137 148 160 157 154 153 153 150 148 146
162 165 163 158 156 155 161 150 150 154 156 153 154 154 143 151 170 171 179 171 166 163 162 162 159 151 117 84 99 107 115 133 133 153 167 165 162 158 157 157 154 152 151
165 167 167 164 163 164 153 149 151 148 151 158 164 162 160 165 182 174 173 176 169 169 161 171 160 147 140 135 119 119 125 127 138 164 172 170 167 163 161 161 159 158 155
165 169 164 167 167 168 156 158 160 158 166 172 177 172 165 167 171 166 169 171 173 168 170 162 166 199 181 168 151 143 138 151 160 163 179 173 171 167 166 166 166 165 162
166 166 166 166 169 165 158 168 168 170 176 177 172 172 168 164 164 167 172 179 188 180 174 169 181 189 170 157 150 147 154 164 170 168 179 179 175 173 173 173 173 172 171
169 165 165 167 173 166 166 172 166 169 168 170 169 171 166 159 159 158 164 174 186 185 178 173 178 173 165 151 146 151 163 164 170 175 181 184 182 180 181 181 180 179 178
167 163 165 169 173 174 172 173 162 164 162 165 165 163 157 154 153 152 156 167 178 174 165 157 156 133 144 146 145 152 158 167 173 182 181 179 182 188 186 185 185 186 187
160 161 168 170 167 169 166 161 155 159 156 159 156 152 151 150 148 144 148 161 162 149 145 141 135 125 120 131 146 166 159 163 173 181 178 177 178 190 197 194 190 193 195
164 164 162 162 161 165 158 149 145 147 148 150 147 145 148 147 146 140 146 156 145 130 133 151 130 135 140 150 162 166 163 159 175 180 184 187 188 191 193 203 199 200 204
162 162 159 162 160 156 149 132 119 117 134 140 143 147 144 142 142 135 137 139 129 120 119 125 125 116 132 153 144 124 163 171 163 183 193 191 195 200 198 205 204 212 213
160 162 162 163 162 154 151 148 141 147 147 148 154 153 147 142 136 131 132 129 126 132 146 140 123 107 99 110 88 52 3 350 203 207 196 189 198 203 197 203 203 207 218
170 171 166 167 163 161 161 153 147 145 149 155 154 147 147 143 141 145 139 135 131 124 121 120 115 110 89 121 125 110 39 342 317 235 202 200 204 201 206 209 205 208 214
173 177 174 171 168 167 158 139 128 116 109 117 140 150 154 149 146 145 142 136 136 132 139 140 132 128 122 72 132 142 146 211 281 309 242 214 204 206 217 213 210 213 215
179 175 169 168 170 168 158 155 157 158 163 173 166 159 151 148 149 147 141 137 135 135 139 144 131 127 124 102 44 96 160 158 154 277 315 271 226 218 217 217 215 217 217
172 172 172 166 169 166 163 162 162 164 163 152 145 146 148 149 151 148 141 133 128 129 135 126 115 111 120 131 126 99 74 74 113 140 243 290 282 249 226 223 217 217 217
162 166 169 169 172 169 168 166 165 164 158 152 154 157 157 153 152 152 140 135 133 133 140 137 127 124 123 120 118 115 128 132 173 157 188 238 255 268 245 233 225 221 218